Date String (YYYY-MM-DD hh:mm:ss) UTC,Instrument flags,Ambient pressure (hPa),Sample flow (lpm),Bypass flow (lpm),Sample temperature (°C),Ambient temperature (°C),ASC tube jacket temperature (°C),LED temperature (°C),Box temperature (°C),Sample RH (%),Span deviation,Mass concentration (μg/m³),Mass concentration (μg/m³),Mass concentration (μg/m³)
DateTimeUTC,F1_M11,P_M11,Q1_M11,Q2_M11,T1_M11,T2_M11,T3_M11,T4_M11,T5_M11,U1_M11,ZSPAN_M11,X0_M11,X2_M11,X1_M11
2022-11-11 20:00:00,,0826.5,5.01,0.00,22.6,21.5,00.0,31.3,24.6,10.9,-001.6,0015.52,0008.28,0007.62
2022-11-11 20:01:00,,0826.5,5.01,0.00,22.6,21.5,00.0,31.3,24.6,10.9,-001.4,0015.00,0008.10,0007.51
2022-11-11 20:02:00,,0826.5,4.99,0.00,22.7,21.5,00.0,31.3,24.6,10.9,-001.2,0014.37,0008.07,0007.48
2022-11-11 20:03:00,,0826.5,5.00,0.00,22.7,21.5,00.0,31.3,24.6,10.9,-000.9,0014.44,0008.09,0007.45
2022-11-11 20:04:00,,0826.5,5.01,0.00,22.7,21.5,00.0,31.4,24.6,10.9,-000.8,0015.56,0008.09,0007.43
2022-11-11 20:05:00,,0826.5,4.99,0.00,22.7,21.5,00.0,31.4,24.7,10.9,-000.4,0015.04,0008.05,0007.42
2022-11-11 20:06:00,,0826.5,4.99,0.00,22.7,21.6,00.0,31.4,24.7,10.8,-000.9,0015.42,0007.98,0007.39
2022-11-11 20:07:00,,0826.5,4.99,0.00,22.7,21.6,00.0,31.4,24.7,10.7,-001.0,0015.14,0007.95,0007.37
2022-11-11 20:08:00,,0826.5,5.02,0.00,22.7,21.6,00.0,31.4,24.7,10.7,-000.7,0014.99,0007.98,0007.37
2022-11-11 20:09:00,,0826.4,4.99,0.00,22.7,21.6,00.0,31.4,24.7,10.7,-000.5,0014.90,0007.99,0007.36
2022-11-11 20:10:00,,0826.5,5.00,0.00,22.7,21.6,00.0,31.4,24.7,10.7,-000.5,0014.27,0008.00,0007.35
2022-11-11 20:11:00,,0826.5,5.00,0.00,22.8,21.6,00.0,31.4,24.7,10.6,-000.5,0014.18,0007.97,0007.33
2022-11-11 20:12:00,,0826.4,5.00,0.00,22.8,21.6,00.0,31.5,24.7,10.6,-000.2,0013.87,0007.95,0007.32
2022-11-11 20:13:00,,0826.5,5.01,0.00,22.8,21.6,00.0,31.5,24.7,10.7,-000.4,0013.78,0007.92,0007.31
2022-11-11 20:14:00,,0826.5,5.01,0.00,22.8,21.6,00.0,31.5,24.7,10.8,-000.2,0013.80,0007.87,0007.29
2022-11-11 20:15:00,,0826.5,5.00,0.00,22.8,21.6,00.0,31.5,24.7,10.7,-000.6,0013.07,0007.86,0007.28
2022-11-11 20:16:00,,0826.5,5.00,0.00,22.8,21.6,00.0,31.5,24.8,10.6,-001.1,0013.87,0007.83,0007.25
2022-11-11 20:17:00,,0826.5,4.99,0.00,22.8,21.7,00.0,31.5,24.8,10.5,-000.3,0014.05,0007.88,0007.23
2022-11-11 20:18:00,,0826.5,4.99,0.00,22.8,21.7,00.0,31.5,24.8,10.4,-000.2,0013.86,0007.86,0007.20
2022-11-11 20:19:00,,0826.5,5.00,0.00,22.8,21.7,00.0,31.5,24.8,10.3,-000.2,0013.78,0007.78,0007.14
2022-11-11 20:20:00,,0826.4,5.00,0.00,22.8,21.7,00.0,31.6,24.8,10.4,0000.3,0013.43,0007.71,0007.09
2022-11-11 20:21:00,,0826.5,5.00,0.00,22.8,21.7,00.0,31.6,24.7,10.2,0000.3,0013.21,0007.63,0007.05
2022-11-11 20:22:00,,0826.5,4.99,0.00,22.8,21.7,00.0,31.6,24.7,10.2,-000.3,0013.43,0007.57,0006.99
2022-11-11 20:23:00,,0826.5,5.00,0.00,22.8,21.7,00.0,31.6,24.7,10.3,-000.8,0013.45,0007.50,0006.94
2022-11-11 20:24:00,,0826.5,5.01,0.00,22.8,21.7,00.0,31.6,24.8,10.2,-000.6,0013.47,0007.45,0006.89
2022-11-11 20:25:00,,0826.5,5.00,0.00,22.8,21.7,00.0,31.6,24.8,10.2,-001.0,0013.28,0007.41,0006.84
2022-11-11 20:26:00,,0826.5,5.00,0.00,22.9,21.7,00.0,31.6,24.8,10.3,-001.2,0013.01,0007.37,0006.81
2022-11-11 20:27:00,,0826.4,5.00,0.00,22.9,21.7,00.0,31.6,24.8,10.2,-000.7,0011.69,0007.34,0006.78
2022-11-11 20:28:00,,0826.4,5.00,0.00,22.9,21.8,00.0,31.6,24.8,10.1,-000.8,0010.98,0007.30,0006.77
2022-11-11 20:29:00,,0826.5,5.00,0.00,22.9,21.8,00.0,31.6,24.8,10.1,-000.6,0011.00,0007.29,0006.76
2022-11-11 20:30:00,,0826.4,5.00,0.00,22.9,21.8,00.0,31.6,24.9,10.3,-000.5,0010.99,0007.29,0006.76
2022-11-11 20:31:00,,0826.5,5.01,0.00,22.9,21.8,00.0,31.6,24.9,10.2,-001.2,0011.00,0007.29,0006.76
2022-11-11 20:32:00,,0826.4,4.99,0.00,22.9,21.8,00.0,31.6,24.9,10.3,-001.1,0011.04,0007.30,0006.77
2022-11-11 20:33:00,,0826.5,4.99,0.00,22.9,21.8,00.0,31.6,24.9,10.1,-000.5,0010.77,0007.28,0006.77
2022-11-11 20:34:00,,0826.5,5.00,0.00,22.9,21.9,00.0,31.6,24.9,10.2,0000.4,0010.78,0007.30,0006.77
2022-11-11 20:35:00,,0826.5,5.00,0.00,22.9,21.8,00.0,31.7,24.9,10.1,0000.4,0010.68,0007.30,0006.78
2022-11-11 20:36:00,,0826.5,5.00,0.00,22.9,21.8,00.0,31.7,24.9,10.1,0000.3,0010.61,0007.32,0006.79
2022-11-11 20:37:00,,0826.5,5.00,0.00,22.9,21.7,00.0,31.7,24.9,10.1,0001.1,0010.52,0007.31,0006.79
2022-11-11 20:38:00,,0826.5,5.01,0.00,22.9,21.7,00.0,31.7,24.9,10.2,0000.4,0010.66,0007.32,0006.78
2022-11-11 20:39:00,,0826.5,5.00,0.00,22.9,21.7,00.0,31.7,24.9,10.1,-000.1,0010.57,0007.28,0006.75
2022-11-11 20:40:00,,0826.5,5.01,0.00,22.9,21.7,00.0,31.7,24.9,10.1,-000.7,0010.58,0007.27,0006.73
2022-11-11 20:41:00,,0826.4,5.00,0.00,23.0,21.8,00.0,31.7,24.9,10.1,-001.1,0010.60,0007.26,0006.71
2022-11-11 20:42:00,,0826.4,5.00,0.00,23.0,21.8,00.0,31.7,24.9,10.0,-000.9,0010.57,0007.22,0006.69
2022-11-11 20:43:00,,0826.5,4.99,0.00,23.0,21.8,00.0,31.7,24.9,09.8,-001.3,0010.61,0007.17,0006.65
2022-11-11 20:44:00,,0826.5,4.99,0.00,23.0,21.8,00.0,31.7,24.9,09.8,-001.0,0010.54,0007.14,0006.62
2022-11-11 20:45:00,,0826.5,5.00,0.00,23.0,21.9,00.0,31.7,24.9,09.9,-001.5,0010.57,0007.08,0006.59
2022-11-11 20:46:00,,0826.5,5.00,0.00,23.0,21.9,00.0,31.7,24.9,09.9,-001.4,0010.90,0007.08,0006.57
2022-11-11 20:47:00,,0826.5,5.01,0.00,23.0,21.9,00.0,31.7,24.9,09.8,-001.5,0011.05,0007.02,0006.54
2022-11-11 20:48:00,,0826.4,5.00,0.00,23.0,21.9,00.0,31.7,25.0,09.9,-001.6,0011.15,0006.98,0006.51
2022-11-11 20:49:00,,0826.5,5.00,0.00,23.0,21.9,00.0,31.7,24.9,10.0,-001.1,0011.35,0006.98,0006.50
2022-11-11 20:50:00,,0826.5,5.01,0.00,23.0,21.9,00.0,31.8,25.0,09.9,-001.0,0011.79,0006.98,0006.49
2022-11-11 20:51:00,,0826.5,4.98,0.00,23.0,21.9,00.0,31.8,25.0,10.0,-000.6,0012.20,0007.11,0006.59
2022-11-11 20:52:00,,0826.4,5.01,0.00,23.0,21.8,00.0,31.8,25.0,09.9,0000.4,0014.86,0008.47,0007.31
2022-11-11 20:53:00,,0826.4,5.01,0.00,23.0,21.8,00.0,31.8,25.0,10.0,0000.5,0016.07,0008.96,0007.52
2022-11-11 20:54:00,,0826.4,5.00,0.00,23.0,21.8,00.0,31.8,25.0,10.1,0001.0,0016.81,0009.37,0007.74
2022-11-11 20:55:00,,0826.3,5.00,0.00,23.0,21.8,00.0,31.8,25.0,10.2,0001.1,0017.80,0009.91,0008.07
2022-11-11 20:56:00,,0826.3,5.00,0.00,23.1,21.8,00.0,31.8,25.0,10.1,0001.4,0019.24,0010.74,0008.57
2022-11-11 20:57:00,,0826.3,4.98,0.00,23.1,21.9,00.0,31.8,24.9,10.0,0001.4,0018.96,0010.76,0008.59
2022-11-11 20:58:00,,0826.3,4.99,0.00,23.1,21.9,00.0,31.8,25.0,10.1,0001.4,0018.71,0010.80,0008.60
2022-11-11 20:59:00,,0826.3,5.01,0.00,23.1,21.9,00.0,31.8,25.0,10.0,0001.6,0019.62,0010.81,0008.63
